This demonstration page uses our WeatherBlox Daily Observations layout. Learn more.

Left ArrowRight Arrow

34.16533, -84.80231

Hourly Observations for February 17, 2015

Temp ( °F °C ) Dew Point ( °F °C ) Humidity (%) Winds ( mph kmh ) Pressure ( in mb ) Visibility ( mi km ) Precip ( " mm )
12:53 am 00:53 Cloudy 35 1.7 33 0.6 93 93 Calm 29.79 1009 8 13 0.00 0.00
1:15 am 01:15 Cloudy 35 1.7 33 0.6 93 93 Calm 29.83 1010 8 13 0.00 0.00
1:28 am 01:28 Cloudy 35 1.7 34 1.1 96 96 Calm 29.83 1010 8 13 0.00 0.00
1:53 am 01:53 Cloudy with Mist and Fog 36 2.2 34 1.1 93 93 Calm 29.81 1010 4 6 0.00 0.00
2:06 am 02:06 Cloudy with Mist and Fog 36 2.2 34 1.1 93 93 VRB 3 6 29.83 1010 5 8 0.00 0.00
2:29 am 02:29 Cloudy with Mist and Fog 36 2.2 34 1.1 93 93 VRB 6 9 29.85 1011 4 6 0.00 0.00
2:42 am 02:42 Cloudy with Mist and Fog 35 1.7 33 0.6 93 93 VRB 6 9 29.85 1011 4 6 0.00 0.00
2:53 am 02:53 Cloudy with Mist and Fog 35 1.7 33 0.6 93 93 VRB 6 9 29.83 1010 4 6 0.00 0.00
3:12 am 03:12 Cloudy 34 1.1 32 0 92 92 VRB 6 9 29.88 1012 10 16 0.00 0.00
3:53 am 03:53 Cloudy 33 0.6 29 -1.7 85 85 VRB 6 9 29.86 1011 10 16 0.00 0.00
4:53 am 04:53 Cloudy 31 -0.6 26 -3.3 82 82 VRB 5 7 29.87 1012 10 16 0.00 0.00
5:53 am 05:53 Cloudy 29 -1.7 23 -5 78 78 NW 7 11 29.91 1013 10 16 0.00 0.00
6:53 am 06:53 Cloudy 27 -2.8 21 -6.1 78 78 VRB 7 11 29.93 1014 10 16 0.00 0.00
7:20 am 07:20 Partly Cloudy 26 -3.3 19 -7.2 75 75 NNW 5 7 30.00 1016 10 16 0.00 0.00
7:53 am 07:53 Sunny 25 -3.9 17 -8.3 72 72 VRB 5 7 29.96 1015 10 16 0.00 0.00
8:48 am 08:48 Mostly Cloudy 25 -4 18 -8 74 74 VRB 3 6 30.06 1018 10 16 0.00 0.00
8:53 am 08:53 Mostly Cloudy 25 -3.9 18 -7.8 75 75 VRB 5 7 29.99 1016 10 16 0.00 0.00
9:25 am 09:25 Partly Cloudy 26 -3.3 18 -7.8 71 71 NNW 7 11 30.06 1018 10 16 0.00 0.00
9:53 am 09:53 Partly Cloudy 27 -2.8 17 -8.3 66 66 VRB 7 11 30.02 1017 10 16 0.00 0.00
10:53 am 10:53 Partly Cloudy 28 -2.2 18 -7.8 66 66 NNW 6 9 30.03 1017 10 16 0.00 0.00
11:53 am 11:53 Sunny 30 -1.1 19 -7.2 64 64 VRB 6 9 30.04 1017 10 16 0.00 0.00
12:53 pm 12:53 Sunny 33 0.6 19 -7.2 56 56 VRB 7 11 30.01 1016 10 16 0.00 0.00
1:53 pm 13:53 Sunny 36 2.2 20 -6.7 52 52 VRB 5 7 29.98 1015 10 16 0.00 0.00
2:53 pm 14:53 Sunny 37 2.8 20 -6.7 50 50 NNW 9 15 29.97 1015 10 16 0.00 0.00
3:53 pm 15:53 Sunny 38 3.3 20 -6.7 48 48 N 12 19 29.97 1015 10 16 0.00 0.00
4:53 pm 16:53 Sunny 36 2.2 19 -7.2 50 50 N 10 17 29.98 1015 10 16 0.00 0.00
5:53 pm 17:53 Sunny 34 1.1 19 -7.2 54 54 NNW 6 9 30.00 1016 10 16 0.00 0.00
6:53 pm 18:53 Clear 32 0 20 -6.7 61 61 N 7 11 30.01 1016 10 16 0.00 0.00
7:53 pm 19:53 Clear 29 -1.7 19 -7.2 66 66 N 8 13 30.03 1017 10 16 0.00 0.00
8:53 pm 20:53 Clear 28 -2.2 19 -7.2 69 69 N 7 11 30.04 1017 10 16 0.00 0.00
9:53 pm 21:53 Clear 27 -2.8 18 -7.8 69 69 NNW 5 7 30.06 1018 10 16 0.00 0.00
10:53 pm 22:53 Clear 26 -3.3 18 -7.8 71 71 N 5 7 30.06 1018 10 16 0.00 0.00
11:53 pm 23:53 Clear 24 -4.4 18 -7.8 77 77 Calm 30.06 1018 10 16 0.00 0.00

Powered by AerisWeather